Temperature
6 6 6 7 7 7 7 7 7 7 8 7 7 7 8 8 7 7 8 9 10 11 12 12 12 12 12 11 11 11 11 11 11 11 11 11 11 11 11 10 10 11 11 11
5 6 7 7 7 7 7 6 6 7 7 7 7 7 7 7 7 8 8 9 10 10 11 11 11 11 11 11 11 11 11 11 11 11 11 11 10 10 10 10 10 10 10 10
6 7 7 7 6 6 6 6 6 7 7 7 7 6 6 6 7 8 8 9 10 10 11 11 11 11 11 11 11 11 11 11 11 10 10 10 10 10 10 10 10 10 10 10
5 6 7 6 6 6 6 7 7 7 6 5 6 6 6 6 6 6 7 8 9 10 10 10 10 10 10 11 10 10 10 10 10 10 10 10 10 9 9 9 10 10 10 10
5 5 6 6 6 6 6 7 6 6 6 5 5 5 5 5 6 7 6 7 8 9 9 10 10 10 10 10 10 10 10 10 10 9 9 9 9 9 9 9 9 9 9 9
4 5 6 6 7 7 6 6 5 5 5 5 5 5 5 5 6 7 6 7 7 8 9 9 9 9 9 9 9 9 9 9 9 9 9 9 9 9 9 9 9 9 9 9
3 4 5 5 6 6 6 5 5 5 5 5 5 5 5 5 5 6 6 6 7 8 8 8 8 8 9 9 9 9 9 9 9 8 8 8 9 9 9 9 9 8 8 8
2 3 4 4 5 5 5 5 5 5 5 4 4 4 5 5 5 5 6 6 6 6 7 7 8 8 8 8 9 9 9 9 8 8 8 8 8 8 8 8 8 8 8 8
2 3 4 4 5 5 5 5 5 5 4 4 4 3 4 4 4 4 4 4 4 5 6 6 7 7 7 8 8 8 9 8 8 8 8 8 8 8 8 8 8 8 7 7
1 1 2 3 5 5 4 4 4 4 4 5 4 4 4 4 4 4 3 3 4 4 5 6 6 7 7 7 7 8 8 8 8 7 7 7 7 7 7 7 7 7 7 7
0 1 2 3 3 3 3 3 3 3 4 4 4 4 4 4 4 4 3 3 3 4 4 5 6 6 6 6 6 7 7 7 7 7 7 7 7 7 7 7 7 7 6 6
-1 -0 0 1 2 3 3 2 2 3 2 2 3 4 4 3 3 3 3 3 3 4 4 4 5 5 6 6 6 6 6 7 7 7 6 6 6 6 6 6 6 6 6 6
-1 -1 -0 1 1 1 2 2 2 2 2 2 2 3 3 2 2 3 3 3 3 3 3 4 4 5 5 5 5 5 6 6 6 6 6 6 6 6 6 6 6 6 6 5
-0 -2 -1 -0 0 -0 0 1 1 1 1 1 2 3 3 2 2 2 2 2 2 3 3 3 3 4 4 4 5 5 5 5 5 5 5 5 5 5 5 5 5 5 5 5
-2 -3 -2 -1 -0 -0 -0 0 1 1 1 1 1 2 2 2 1 1 2 2 2 2 2 2 2 3 3 3 4 4 4 4 5 5 5 5 5 5 5 5 5 5 5 4
-3 -3 -3 -2 -1 -0 -0 -0 0 1 1 1 1 1 1 1 1 1 1 1 1 1 2 2 2 2 3 3 3 3 4 4 4 4 4 4 4 4 4 4 4 4 4 4
-4 -4 -3 -3 -2 -1 -2 -1 -1 -0 -1 -0 0 0 -0 -0 -0 -0 0 0 1 1 2 2 2 2 2 2 3 3 3 3 3 3 3 3 3 4 4 4 3 3 3 3
-4 -4 -4 -3 -3 -3 -2 -2 -2 -1 -1 -1 -1 -1 -1 -1 -0 -0 -0 -0 0 1 1 1 1 1 1 2 2 3 3 3 3 3 3 3 3 3 3 3 3 3 3 3
-4 -4 -4 -4 -4 -3 -2 -3 -3 -3 -2 -2 -2 -2 -2 -1 -1 -1 -0 -0 -0 0 0 1 1 1 1 1 2 2 2 2 2 2 2 2 2 3 3 3 3 2 2 2
-4 -5 -5 -5 -4 -4 -3 -4 -3 -3 -3 -3 -3 -2 -2 -2 -2 -2 -1 -2 -1 -1 -0 0 0 0 1 1 1 2 2 2 2 2 2 2 2 2 2 2 2 2 2 2
-5 -6 -6 -5 -5 -5 -4 -4 -3 -3 -4 -4 -3 -3 -3 -3 -3 -2 -2 -2 -2 -1 -1 -0 -0 -0 0 0 1 1 1 1 1 1 1 1 1 1 1 1 1 1 1 1
-6 -6 -6 -6 -6 -5 -4 -4 -4 -5 -4 -4 -4 -4 -4 -4 -3 -3 -3 -2 -2 -2 -1 -1 -1 -1 -1 -0 -0 0 0 -0 0 0 0 1 1 1 1 1 1 1 0 0
-6 -6 -6 -6 -5 -5 -5 -5 -5 -5 -5 -5 -5 -5 -4 -4 -4 -4 -4 -3 -3 -2 -2 -2 -1 -1 -1 -1 -1 -1 -1 -1 -1 -1 -0 -0 -0 -0 -0 -0 -0 -0 -0 -0
-7 -6 -6 -6 -6 -5 -5 -5 -5 -5 -5 -5 -5 -5 -5 -5 -5 -5 -4 -4 -3 -3 -3 -2 -2 -2 -2 -2 -2 -2 -1 -1 -1 -1 -1 -1 -1 -1 -1 -1 -1 -1 -1 -1
-7 -7 -7 -7 -6 -6 -6 -6 -6 -6 -6 -6 -5 -5 -5 -5 -5 -5 -5 -4 -4 -4 -4 -3 -3 -3 -3 -2 -2 -2 -2 -2 -2 -2 -2 -1 -1 -1 -1 -1 -1 -1 -1 -1
-8 -8 -8 -7 -7 -7 -7 -6 -6 -6 -6 -6 -6 -5 -5 -5 -5 -5 -5 -5 -5 -4 -4 -4 -4 -3 -3 -3 -3 -3 -3 -2 -2 -2 -2 -2 -2 -2 -2 -2 -2 -2 -2 -2
Wind_Speed
5 7 14 17 16 6 5 6 7 6 4 5 10 13 12 8 6 7 7 7 7 8 6 3 4 4 4 4 4 5 4 4 4 3 3 3 3 3 3 3 4 5 6 6
4 15 16 8 9 9 6 6 7 4 2 5 7 12 11 9 8 9 9 9 8 6 4 3 3 3 5 5 5 5 5 5 5 5 4 3 3 2 3 2 3 4 5 6
16 8 8 9 9 12 13 11 8 5 2 2 4 9 7 6 6 6 7 8 7 8 7 5 4 5 4 5 6 6 6 5 5 5 4 4 3 2 2 2 2 3 4 5
12 9 6 10 12 13 14 10 8 6 3 4 2 6 6 5 5 7 8 7 7 7 6 5 5 5 5 6 5 5 5 5 5 6 6 7 5 4 4 3 2 2 4 4
9 7 9 12 12 12 6 5 7 7 6 5 4 5 8 3 6 8 7 7 6 5 6 5 6 6 5 5 5 5 5 5 5 6 7 7 5 4 3 3 3 2 3 4
7 4 7 9 6 9 5 3 2 2 4 8 10 8 7 5 7 5 4 4 4 4 4 3 3 3 3 3 3 4 5 5 6 7 7 8 7 5 5 4 4 3 2 2
6 6 4 3 4 6 7 5 3 4 6 8 7 7 9 7 6 5 4 3 3 2 2 1 2 2 3 3 4 5 6 6 7 7 7 8 8 8 8 6 5 4 2 2
4 7 5 3 6 7 11 10 7 7 6 3 4 8 6 5 3 2 1 1 0 1 0 1 2 2 2 3 4 4 6 6 7 8 8 7 7 6 5 6 5 5 3 3
3 6 3 4 3 7 7 8 4 3 2 3 5 5 6 2 2 2 1 2 1 1 1 1 1 2 2 3 3 4 5 5 6 7 7 7 7 6 6 5 5 4 3 3
2 5 4 3 1 3 4 6 3 4 5 6 5 5 4 3 2 1 0 1 2 2 2 2 1 1 2 2 2 3 3 4 5 6 7 6 6 7 6 6 5 5 4 4
2 3 4 1 3 4 3 4 3 4 3 4 4 5 3 4 2 1 2 2 1 1 2 2 2 1 0 1 1 2 2 3 4 6 6 7 6 6 6 5 6 6 5 5
3 2 4 5 3 1 3 5 4 5 4 3 3 5 2 1 0 0 2 2 1 2 2 2 2 1 1 1 1 2 2 2 4 5 6 7 6 6 6 6 5 6 6 5
4 2 2 2 0 1 0 1 3 3 2 3 4 5 2 3 3 3 2 2 2 3 3 3 3 2 1 0 1 1 1 2 3 4 6 6 6 7 7 6 6 6 6 5
4 2 4 5 3 2 4 4 2 3 4 4 6 5 5 5 4 5 3 2 2 2 2 3 3 3 2 0 1 1 1 2 3 4 5 6 6 7 7 6 6 6 6 6
2 2 3 6 6 4 6 7 6 6 7 6 6 6 6 6 4 4 3 2 2 3 3 3 3 3 2 1 0 1 1 2 3 4 5 5 5 5 6 6 6 6 6 6
3 2 2 4 3 3 5 6 6 6 6 6 5 6 5 4 3 3 3 3 3 4 4 3 3 3 2 1 1 0 1 2 3 4 5 5 5 5 6 6 6 6 6 6
2 1 2 3 3 2 2 4 3 2 2 3 5 6 4 4 4 4 4 4 4 5 4 4 4 3 3 2 2 2 2 2 4 4 4 5 5 6 5 6 6 6 6 6
4 3 2 2 2 1 2 3 3 1 2 3 4 5 5 5 5 5 4 5 6 6 5 5 4 3 3 2 1 1 2 3 4 4 4 5 5 6 5 5 5 5 5 6
5 3 1 0 1 2 4 5 6 4 5 5 5 7 8 7 6 5 5 5 6 6 6 5 4 3 2 1 2 2 2 3 3 3 4 5 6 6 5 5 5 5 5 5
2 2 1 0 0 1 4 10 10 2 3 7 9 9 9 7 5 6 8 9 8 7 5 4 2 1 1 1 2 3 3 3 3 3 3 4 5 6 6 5 5 4 4 4
3 2 0 1 1 2 6 12 7 3 5 11 10 9 7 5 5 8 9 9 7 6 5 3 1 0 1 0 2 3 3 2 2 3 3 4 4 5 5 4 4 4 4 4
2 2 1 1 1 3 8 7 4 4 8 9 9 9 8 7 8 8 8 8 7 6 5 3 1 1 1 1 3 3 2 1 2 3 4 4 4 4 4 5 4 4 5 5
2 1 0 1 2 4 5 5 5 6 7 8 8 9 8 8 8 8 8 8 7 6 5 3 2 2 3 2 2 3 1 2 3 4 3 3 4 3 3 4 4 4 4 4
4 4 1 1 3 5 7 6 8 8 8 9 9 10 8 8 8 8 8 7 6 6 5 4 3 3 3 3 3 2 2 3 4 3 3 3 3 3 2 2 3 3 4 5
4 4 2 2 5 7 6 8 10 11 11 10 10 9 9 8 8 7 6 7 6 5 5 4 4 3 3 3 3 2 2 3 3 3 2 3 3 3 2 2 1 2 3 5
4 3 2 3 5 5 8 10 11 11 11 11 11 11 10 8 8 7 6 6 5 5 5 5 5 4 3 3 3 2 2 3 4 2 2 2 2 2 2 2 1 1 1 2
Wind_Direction
184 193 212 210 206 210 179 196 230 238 227 209 236 253 262 260 246 248 246 235 233 237 240 218 202 184 169 175 181 184 179 180 167 163 168 174 182 175 169 165 168 168 169 170
196 224 222 203 201 218 219 227 239 268 236 220 258 266 263 246 234 233 237 236 232 236 237 215 197 175 173 180 188 187 185 176 174 176 172 166 159 159 165 148 146 163 164 167
214 228 196 195 204 212 224 221 220 233 327 286 295 289 260 252 228 233 231 229 226 219 219 208 197 192 183 187 189 190 189 179 174 166 145 129 113 107 115 134 162 161 163 165
231 241 206 202 212 203 232 217 209 217 231 261 217 280 274 250 257 243 237 231 227 219 212 205 197 197 199 204 194 187 183 177 173 167 161 155 157 163 178 176 170 154 151 154
233 212 213 216 215 196 217 185 195 205 205 247 222 241 279 257 255 249 234 229 226 217 203 201 200 202 204 202 191 187 178 178 174 175 174 173 173 164 150 137 134 144 145 140
253 236 212 218 214 190 160 126 151 181 192 240 214 204 269 227 228 240 230 227 225 217 207 201 190 181 195 195 183 178 177 182 178 179 180 181 174 161 150 151 157 154 146 146
270 255 240 182 175 176 164 159 192 210 214 237 179 197 246 236 233 223 229 243 225 204 187 183 174 181 194 191 188 184 182 186 183 182 185 186 185 174 172 173 173 164 159 164
247 258 221 205 195 191 196 186 190 203 211 240 175 218 248 262 267 238 209 234 132 61 65 220 215 203 208 199 187 182 189 192 186 184 186 183 180 178 178 174 171 173 179 177
245 261 278 249 210 165 182 209 197 171 184 210 231 264 299 310 345 23 38 40 10 336 309 269 245 216 213 207 201 191 190 189 187 184 179 176 175 174 174 170 165 168 169 162
253 267 282 274 179 175 167 160 153 186 192 224 239 238 240 246 261 10 37 313 308 327 339 334 321 283 237 208 193 179 183 194 187 179 178 177 176 174 170 163 161 160 162 155
286 258 294 266 193 191 150 166 171 188 209 198 224 249 227 206 190 216 250 251 248 301 329 335 332 316 284 139 146 166 178 170 174 178 176 170 172 167 161 165 169 167 162 161
318 271 262 249 251 191 157 177 169 188 218 205 211 257 311 181 79 325 307 319 349 4 5 357 346 352 54 87 148 176 176 168 178 174 170 170 168 162 162 168 167 160 159 159
323 319 315 320 289 45 172 212 195 186 166 192 203 253 324 16 7 8 4 356 358 7 11 12 8 360 10 88 153 170 174 178 168 157 158 161 165 167 170 169 162 158 154 150
319 241 225 232 255 288 277 272 238 192 208 225 224 242 294 334 338 338 341 340 343 358 2 359 352 338 334 350 152 151 165 158 153 153 155 165 174 175 174 167 159 157 154 149
359 269 258 267 279 275 278 273 246 221 214 218 240 248 277 294 294 297 304 326 343 339 335 323 323 320 327 346 83 140 149 147 149 153 158 171 169 162 158 155 155 152 149 147
354 280 291 282 267 278 287 296 268 248 234 233 247 267 291 304 319 325 320 320 318 310 302 301 305 308 306 299 279 173 167 160 148 156 165 166 156 152 153 153 151 146 142 140
306 270 288 277 301 350 317 313 275 246 299 251 247 270 320 330 327 318 313 310 299 297 293 293 287 278 272 267 249 214 191 158 150 160 163 157 152 152 157 153 147 148 147 140
237 247 252 290 14 227 259 343 350 316 339 337 316 318 326 307 302 302 303 296 304 309 300 292 284 284 286 271 244 196 158 151 154 161 162 159 154 153 151 150 153 153 148 149
215 209 211 264 235 279 324 356 346 316 322 346 330 328 333 330 330 325 347 336 316 309 305 294 283 279 282 258 196 153 144 144 144 156 164 164 158 154 153 156 160 155 148 147
55 139 143 144 221 247 333 327 322 306 320 352 342 328 328 338 328 311 336 332 323 317 313 306 298 309 291 282 148 138 143 145 159 166 161 156 154 155 159 163 159 151 145 146
355 15 66 216 244 293 332 329 347 39 313 326 327 325 331 320 294 303 318 323 321 317 317 322 327 296 279 247 119 122 127 153 167 140 131 132 141 150 154 152 149 144 141 137
360 9 4 45 11 301 340 357 16 315 312 327 333 333 332 325 322 325 329 332 333 335 337 346 12 3 16 79 114 111 119 129 115 112 113 119 125 136 142 142 145 146 146 146
27 348 256 188 237 297 338 347 329 327 330 335 337 333 332 331 333 337 339 340 342 349 352 2 35 31 25 42 99 114 108 108 107 103 110 118 120 128 142 149 155 159 161 164
348 354 10 331 315 331 344 353 349 346 340 336 335 334 337 336 335 338 342 346 352 357 0 12 39 48 30 29 53 89 98 100 105 109 112 120 123 125 130 143 160 170 177 177
337 348 352 322 317 333 346 349 344 343 345 346 345 345 345 345 345 346 348 349 354 359 0 11 31 41 32 36 47 55 93 104 103 103 108 119 123 132 128 130 160 179 204 197
2 356 347 310 317 315 314 329 342 346 347 346 346 348 350 353 349 351 352 353 358 2 7 16 25 31 27 33 34 25 59 108 117 116 117 120 123 124 126 119 67 23 168 192
Height
1459 1462 1458 1456 1459 1462 1465 1468 1469 1467 1464 1466 1465 1462 1458 1457 1457 1456 1455 1456 1456 1457 1459 1462 1464 1467 1469 1471 1473 1476 1478 1480 1482 1484 1485 1487 1490 1492 1495 1497 1500 1502 1504 1506
1459 1454 1448 1454 1459 1462 1464 1466 1467 1466 1464 1465 1464 1460 1455 1453 1452 1451 1451 1451 1452 1453 1455 1457 1460 1462 1465 1467 1469 1471 1473 1476 1478 1480 1482 1484 1487 1489 1492 1494 1496 1498 1500 1503
1449 1445 1447 1452 1456 1459 1460 1463 1464 1466 1465 1464 1464 1458 1452 1447 1447 1446 1446 1446 1447 1449 1451 1453 1456 1458 1461 1463 1465 1467 1469 1472 1474 1477 1479 1481 1483 1486 1488 1490 1493 1495 1497 1499
1448 1445 1446 1448 1450 1454 1455 1456 1460 1462 1467 1469 1466 1465 1451 1447 1445 1442 1442 1442 1442 1444 1447 1449 1452 1454 1456 1459 1461 1464 1466 1468 1470 1473 1474 1476 1478 1480 1484 1487 1490 1492 1494 1496
1443 1442 1444 1444 1444 1449 1451 1452 1457 1460 1464 1468 1466 1467 1452 1446 1443 1439 1438 1438 1439 1441 1443 1445 1448 1450 1453 1455 1457 1460 1462 1464 1466 1469 1471 1473 1475 1478 1481 1484 1487 1489 1491 1493
1441 1440 1440 1440 1441 1445 1449 1454 1457 1461 1464 1464 1459 1464 1451 1447 1438 1435 1434 1435 1437 1438 1440 1442 1444 1447 1449 1451 1454 1456 1458 1460 1463 1465 1467 1470 1472 1475 1478 1480 1483 1486 1488 1490
1442 1439 1438 1438 1441 1444 1447 1454 1459 1460 1461 1454 1452 1455 1445 1437 1433 1432 1433 1433 1435 1436 1438 1439 1441 1443 1445 1447 1449 1452 1454 1456 1459 1461 1463 1466 1469 1472 1475 1477 1480 1482 1484 1486
1446 1441 1437 1436 1436 1439 1442 1445 1450 1452 1452 1453 1453 1450 1440 1432 1430 1430 1431 1432 1433 1434 1435 1437 1438 1440 1442 1444 1446 1448 1450 1452 1455 1458 1460 1463 1466 1469 1472 1474 1477 1479 1481 1484
1448 1442 1435 1433 1433 1436 1440 1442 1442 1448 1452 1454 1450 1446 1439 1431 1430 1431 1432 1432 1432 1433 1434 1435 1437 1438 1439 1441 1443 1445 1446 1449 1451 1454 1457 1460 1463 1466 1468 1471 1474 1476 1479 1481
1450 1446 1437 1434 1432 1433 1436 1439 1445 1447 1447 1445 1444 1444 1439 1434 1431 1432 1432 1432 1432 1433 1433 1434 1435 1436 1437 1439 1440 1442 1444 1445 1448 1451 1454 1457 1460 1463 1466 1468 1471 1473 1475 1478
1450 1448 1441 1436 1434 1435 1438 1441 1442 1444 1443 1442 1444 1440 1433 1431 1431 1432 1432 1432 1432 1432 1432 1433 1433 1434 1435 1437 1438 1440 1441 1443 1445 1448 1451 1454 1457 1460 1463 1465 1468 1470 1472 1475
1452 1449 1445 1439 1435 1434 1435 1438 1441 1444 1446 1446 1445 1440 1430 1430 1431 1431 1431 1431 1431 1431 1432 1432 1432 1433 1434 1435 1436 1437 1439 1441 1443 1445 1448 1451 1454 1457 1459 1462 1465 1467 1469 1471
1453 1452 1449 1442 1441 1439 1439 1439 1440 1441 1445 1447 1445 1441 1431 1430 1430 1431 1431 1431 1431 1431 1431 1431 1431 1431 1432 1433 1434 1435 1437 1438 1440 1443 1445 1448 1451 1453 1456 1459 1462 1465 1467 1469
1452 1452 1452 1448 1443 1444 1442 1441 1441 1442 1445 1445 1441 1437 1433 1433 1433 1432 1432 1431 1431 1431 1431 1430 1430 1430 1431 1431 1432 1433 1435 1436 1438 1440 1442 1445 1448 1450 1453 1456 1459 1462 1464 1466
1453 1454 1450 1446 1443 1443 1442 1440 1439 1440 1441 1443 1439 1437 1434 1434 1434 1432 1431 1431 1430 1430 1430 1430 1429 1429 1430 1430 1430 1431 1433 1434 1436 1438 1440 1442 1445 1448 1451 1453 1456 1459 1461 1463
1454 1454 1451 1447 1441 1441 1441 1440 1438 1436 1437 1438 1437 1437 1435 1434 1433 1432 1431 1430 1429 1428 1428 1428 1428 1428 1428 1428 1429 1430 1431 1432 1434 1436 1438 1440 1443 1445 1448 1451 1453 1456 1458 1461
1456 1456 1453 1449 1443 1440 1445 1443 1440 1438 1439 1438 1437 1437 1435 1434 1433 1432 1431 1429 1428 1427 1426 1426 1426 1426 1426 1426 1427 1428 1429 1431 1432 1434 1436 1438 1441 1443 1446 1449 1451 1454 1456 1459
1456 1456 1454 1451 1449 1452 1449 1443 1441 1440 1439 1439 1438 1436 1435 1434 1432 1431 1429 1428 1426 1425 1424 1424 1424 1424 1424 1424 1425 1426 1427 1429 1430 1432 1434 1436 1439 1441 1444 1447 1449 1451 1454 1456
1453 1454 1455 1454 1453 1450 1446 1445 1446 1443 1440 1440 1438 1436 1434 1432 1428 1427 1428 1427 1425 1423 1422 1422 1421 1421 1421 1421 1422 1423 1425 1426 1428 1429 1431 1434 1437 1439 1441 1444 1446 1449 1452 1454
1452 1453 1456 1457 1455 1454 1453 1448 1443 1443 1442 1441 1439 1436 1434 1432 1431 1428 1427 1425 1423 1421 1420 1419 1419 1418 1418 1418 1419 1421 1422 1424 1425 1427 1429 1432 1434 1437 1439 1441 1444 1447 1449 1451
1458 1459 1461 1461 1461 1457 1455 1449 1444 1449 1450 1444 1441 1437 1435 1434 1433 1430 1425 1422 1420 1418 1417 1417 1416 1416 1416 1417 1417 1418 1420 1421 1423 1425 1427 1430 1432 1435 1437 1439 1441 1444 1446 1448
1464 1464 1464 1464 1467 1465 1455 1452 1453 1453 1448 1444 1440 1437 1435 1432 1430 1427 1424 1421 1418 1416 1415 1414 1414 1414 1414 1415 1416 1416 1418 1420 1422 1424 1425 1427 1430 1432 1435 1436 1438 1440 1443 1445
1466 1466 1465 1466 1467 1462 1458 1456 1455 1452 1448 1444 1441 1437 1434 1431 1428 1425 1422 1420 1417 1415 1414 1413 1413 1412 1413 1414 1415 1415 1417 1419 1420 1422 1423 1425 1428 1430 1432 1434 1436 1438 1440 1442
1468 1466 1466 1465 1462 1460 1458 1456 1454 1451 1448 1444 1441 1437 1433 1430 1427 1424 1422 1420 1417 1416 1414 1413 1412 1411 1412 1413 1414 1415 1416 1418 1419 1420 1422 1424 1426 1428 1430 1432 1434 1435 1437 1438
1473 1469 1468 1467 1464 1461 1457 1456 1453 1450 1446 1443 1439 1436 1433 1430 1426 1424 1422 1420 1418 1416 1415 1413 1412 1411 1412 1412 1413 1414 1415 1416 1417 1419 1420 1422 1424 1426 1427 1429 1431 1432 1434 1435
1475 1474 1473 1470 1467 1465 1461 1456 1453 1450 1446 1442 1439 1435 1433 1430 1427 1425 1422 1420 1418 1416 1415 1414 1413 1412 1412 1412 1412 1414 1415 1416 1417 1418 1419 1421 1422 1424 1425 1426 1428 1429 1431 1432